国际通讯卫星 2-F2星 (INTELSAT 2-F2)

导读 | 豆包AI

INTELSAT 2-F2是国际通信卫星组织(ITSO)第二代国际通信卫星系列中的第二颗卫星,于1967年1月11日发射升空。作为早期全球通信卫星网络的重要组成部分,该卫星旨在为跨大西洋等国际电信业务提供连接支持,服务全球公共通信需求,是国际卫星通信商业化早期发展阶段的代表性实践,推动了全球互联互通基础设施建设。

基本信息
目录编号:
2639
目录名称:
INTELSAT 2-F2
国际标识:
1967-001A
轨道中心:
EARTH
卫星名称:
国际通讯卫星 2-F2星
卫星全名:
国际通讯卫星 2-F2星 (INTELSAT 2-F2)
卫星状态:
在轨 (已飞行21633 天)
发射日期:
1967-01-11 UTC
国别 :
(ITSO)
星等 :
--
轨道信息
数据来源 国际轨道数据
星历时间: 2026-04-04T03:30:09+0800
8小时前
查看轨道信息
半长轴: 42182.315km
偏心率: 0.0007168
轨道倾角: 3.063°
近地点辐角 213.684°
升交点赤经 77.999°
平近点角 157.240°
近地点: 35773.941km
远地点: 35834.415km
周期: 1436.995分钟
每日圈数: 1.002091
详细信息
卫星平台:
HS-303A
平衡模式:
自旋稳定
覆盖范围:
全球
运营商:
国际卫星通信公司
运营商所在国:
美国
制造商(研发单位):
休斯公司
制造商所在国:
美国
使用方式:
暂无
卫星简介
从1965年4月至1984年3月,国际通信卫星组织发射了5代、6种不同性能的卫星共计35颗,除6颗卫星因运载火箭和远地点发动机故障而发射失败外,其余29颗卫星均被送到了预定的静止轨道位置。1984年8月前后,国际通信卫星组织利用部署在大西洋、太平洋、印度洋上空的15颗国际通信卫星,为遍布世界各地170多个国家或地区提供电话、电传、电报、电视和数据传输等电信业务;该卫星已退役。
2D轨道图
3D轨道图
轨道高度分析图
轨道倾角分析图
轨道综合分析图
查看轨道综合分析图